User: anonymous   Login
Location: Unspecified
(0.0000°N, 0.0000°E)
Time: 06:21:09
(UTC+00:00)
Language:

AOBA-VELOX 3 - Orbit

View from above orbital plane
View from above orbital plane
View from above satellite
View from above satellite

Ground track
Ground track

The orbit data is extracted from the following two-line orbital elements,

1 41935U 98067KX  18116.58644733 +.00037538 +00000-0 +23850-3 0  9996
2 41935 051.6353 243.0992 0004336 346.2702 013.8179 15.76085134072778
Epoch (UTC): 26 April 2018 14:04:29
Eccentricity: 0.0004336
inclination: 51.6353°
perigee height: 338 km
apogee height: 344 km
right ascension of ascending node: 243.0992°
argument of perigee: 346.2702°
revolutions per day: 15.76085134
mean anomaly at epoch: 13.8179°
orbit number at epoch: 7277

The dashed part of the orbit path shows where the satellite is in the earth's shadow,  

DLR